Showing default

BISONSAT, 40968

Orbit data source: Space-Track

BISONSAT, 40968 is a payload satellite owned by Salish Kootenai (US) in LEO that was launched on Thu, 08 Oct 2015 UTC via an ATLAS V 401 launch vehicle from the Air Force Western Test Range (AFWTR). Payload-class satellites include a variety of spacecraft equipped with specific instruments for various scientific and technological missions. These include communications satellites like Starlink; space stations such as the ISS; scientific satellites like the Hubble; Earth observation satellites from companies like Planet Labs, Umbra, and HawkEye 360; GPS; miniature CubeSats for education and research; and military/defense satellites.

Loading next visibility...
Identifier
40968, 2015-058E
Orbit
LEO
Country
Flag of USUS
Related business
Manufacturer
Salish Kootenai
Mission
Operational Amateur Technology
Bus & Motor
CUBESAT 1U, Unknown motor
Mass
1 kg wet, 1 kg dry
Launch date (UTC)
2015-10-08 (11 years ago)
Launch vehicle
ATLAS V 401
Launch site
Air Force Western Test Range (AFWTR)
Object type
Payload
Rocket body
Debris
Shape & HBR
Box, 0.1 m
Radar Cross Section
0.015 m², Small (<0.1 m²)

Expand to show TLE details & history
Last TLE update: 7 hours ago

TLE from 7 hours ago
0 BISONSAT
1 40968U 15058E   26102.28260235  .00002599  00000-0  21930-3 0  9998
2 40968  64.7737 105.2108 0116819  79.4235 282.0013 14.95358084106804
Epoch: 2026-04-12T06:46Z
TLE epoch observation values (Epoch: 2026-04-12T06:46:56.843Z)
Latitude
Longitude
162.98417°
Altitude
567.278 km
Speed
7.587 km/s
True Right ascension
07h 00m 50s
True Declination
0° 00' 00"
Sunlit
Object was in daylight at epoch
Visualization orbit readout
Latitude
Unknown
Longitude
Unknown
Altitude
Unknown
Speed
Unknown
Apparent Right ascension
Unknown
Apparent Declination
Unknown
Sunlit
N/A
Visualization observer readout
Local Sidereal Time
20:21:02
Azimuth
Unknown
Elevation
Unknown
Doppler factor
Unknown
Orbital elements
Apogee altitude
661.108 km
Perigee altitude
498.544 km
Semi-major axis
6,957.963 km
Eccentricity
0.01168
Inclination
64.7737°
RAAN
105.2108°
Arg. of periapsis
79.4235°
True anomaly
280.68804°
Mean anomaly
282.0013°
Eccentric anomaly
281.34505°
Mean motion
3.73956 °/min
Orbital period
96.27 mins
BSTAR
0.0002193
Loading maneuver chart data...
Computing Atmospheric mass density...
Loading historical data...
Loading historical data...
Loading historical data...
Loading historical data...
Loading historical data...
Loading historical data...
Loading historical data...

Documentation

Showing up to 5 results
|